Powrót do katalogu

SL-8 R/B

AktywnyPO
NORAD 28522·ROCKET BODY·🇷🇺 Russia

Wystrzelony Jan 20, 2005 z Plesetsk Cosmodrome

Loading…

Następne Przeloty (najbliższe 24 godziny)

TLE

ŚwieżeSource: Space-Track

Epoka: Sep 14, 2026, 09:37 UTC

1 28522U 05002B   26257.40137634  .00000101  00000-0  68429-4 0  9991
2 28522  82.9470 314.0917 0044713 337.4125  22.5070 13.90066712 97995

Śledź SL-8 R/B w czasie rzeczywistym z AllMySat

Download on the App Store